Погода в Туркестане

Погода в Туркестане : погода сейчас, прогноз погоды и архив. Всё, что Вы хотите узнать о погоде в Туркестане!

Хотите узнать прогноз погоды в Туркестане? Тогда Вам сюда: Погода в Туркестане

Поиск расширенной информации на нашем сайте:

Другие новости

Новости СМИ2

Главная страница сайта

Новости сайта

03.07.2017

Напоминаем, что на нашем специализированном сайте Метеоцентр.Азия вы можете получить высокодетализированные автоматические прогнозы погоды по пунктам России, СНГ и мира в авиационном формате (включающие направление и скорость ветра, видимость, явления погоды, количество и форму облачности, нижнюю и верхнюю границу облачности).


Погода в Туркестане - сегодня

Время (UTC), дата Ветер
(°,м/с) 
Видим.   Явления Облачность Т
(°С)
Тd
(°С)
f(%) Тe
(°С)
Pmin
(гПа)
dP
(гПа)
Po
(мм)
O2
(г/м3)
Тmin Tmax R s Состояние
почвы
21 12.10.18 310 (СЗ) н/о    8/0 средняя 
[Ac As]
+10.4 -0.3 47 +10  1014.2  2.1  742  288           
00 13.10.18 230 (ЮЗ) н/о    9/3 600 м кучево-дожд., средняя 
[Cb cap|Ac As]
+9.3 +2.8 64 +9  1015.5  1.2  743  289           
06 13.10.18 290 (З) 20000 м    6/6 600 м кучево-дожд. 
[Cb cap]
+12.3 -4.7 30 +11  1018.7  1.7  746  288  +7.7         
09 13.10.18 250 (З) 20000 м    8/8 1000 м 
[Cu med, cong]
+12.3 -5.7 28 +11  1019.9  1.2  746  288           
12 13.10.18 280 (З) 20000 м    8/4 1000 м верхняя 
[Cu med, cong|Ci sp]
+10.5 -8 26 +9  1022.5  -2.4  748  291           
15 13.10.18 250 (З) н/о    4/0 средняя 
[Ac As]
+4.4 -9 37 +5  1026.1  750  298    +13.3       
18 13.10.18 280 (З) н/о    10/5 600 м кучево-дожд., средняя 
[Cb cap|Ac trans]
+4.6 -7.6 41 +5  1026.4  0.3  751  298    +13.3       
21 13.10.18 тихо ()   н/о    10/6 600 м кучево-дожд., средняя 
[Cb cap|Ac As]
+4.1 -7.6 42 +4  1027.2  0.7  751  299           
00 14.10.18 070 (В) н/о    10/6 600 м кучево-дожд., средняя 
[Cb cap|Ac As]
+5.7 -4.6 47 +5  926.5  -0.5  751  297           
06 14.10.18 130 (ЮВ) 10 км    10/10 600 м 
[Sc]
+8.7 -4.5 39 +8  1026.2  -0.4  751  294  +4         
09 14.10.18 230 (ЮЗ) 20000 м    10/10 600 м кучево-дожд. 
[Cb cap]
+12 -7 26 +11  1023.4  -2.4  749  290           
12 14.10.18 220 (ЮЗ) 20000 м    10/10 600 м кучево-дожд. 
[Cb cap]
+12.5 -6.6 26 +12  1021.5  -1.8  748  289           
15 14.10.18 170 (Ю) н/о    10/10 600 м кучево-дожд. 
[Cb cap]
+10 -5.6 33 +10  1020.7  -1  747  291    +12.6       
18 14.10.18 170 (Ю) н/о    10/10 600 м кучево-дожд. 
[Cb cap]
+10 -6 32 +10  1018.3  -2.3  745  290    +12.6       
21 14.10.18 230 (ЮЗ) н/о  в посл. час ливневой дождь  10/10 600 м кучево-дожд. 
[Cb cap]
+9.1 +2.5 63 +7  1017.6  -0.8  745  290           
09 15.10.18 220 (ЮЗ) 10 км  слаб. ливневой дождь  10/10 600 м кучево-дожд. 
[Cb cap]
+8.6 +6 84 +6  1010.3  -2.6  739  288           
21 15.10.18 110 (В) н/о    ясно 
-0.4 -0.5 99 -2  1022.4  0.1  747  302           
00 16.10.18 120 (ЮВ) н/о    ясно 
-0.9 -0.7 100 -2  1022.2  -0.3  747  302           
06 16.10.18 тихо ()   20000 м    9/8 600 м кучево-дожд., средняя 
[Cb cap|Ac As]
+2.7 -1.1 76 +3  1023.5  1.2  748  299  -1         
09 16.10.18 320 (СЗ) 10 км  {ливн. осадки}  10/10 600 м кучево-дожд. 
[Cb cap]
+4.1 +1.8 85 +4  1024.4  749  297           
18 16.10.18 280 (З) н/о    ясно 
-0.5 -0.6 99 1031.7  1.8  754  305    +5.1  0.4     
21 16.10.18 280 (З) н/о    ясно 
-2.1 -2.1 100 -2  1033.5  1.6  755  307           
00 17.10.18 тихо ()   н/о    ясно 
-2.8 -2.9 99 -3  1035.3  1.7  757  308           
06 17.10.18 100 (В) 4000 м  дымка  ясно 
+0.6 +0.6 100 -1  1037.6  0.8  759  305  -3.2         
09 17.10.18 240 (ЮЗ) 20000 м    6/6 1000 м 
[Cu med, cong]
+6 -1.6 58 +6  1035.6  -1.4  758  299           
Время (UTC), дата Ветер
(°,м/с) 
Видим.   Явления Облачность Т
(°С)
Тd
(°С)
f(%) Тe
(°С)
Pmin
(гПа)
dP
(гПа)
Po
(мм)
O2
(г/м3)
Тmin Tmax R s Состояние
почвы

Для получения пояснительной информации подведите курсор к названию столбца.

ПОГОДА в Туркестане - архив

Всё, что Вы хотите узнать о погоде в Туркестане - удобно и подробно!

Выберите нужную дату (начиная с 1 января 2015* года) и нажмите кнопку "Найти".
Будут отображены архивные сводки погоды по пункту Туркестан, начиная с указанной даты.


Отображать данные в формате CSV (для использования в таблицах Excel)


Внимание! Наш архив погоды предназначен исключительно для личного некоммерческого использования в познавательных целях. Если Вам необходимы официальные справки о состоянии погоды (для производственных, юридических, коммерческих и т.п. целей), обращайтесь в органы Росгидромета.

*Примечание: данная дата относится к архиву по метеостанциям СССР (Россия, СНГ, Балтия).
Архив по метеостанциям Зарубежной Европы и Азии (кроме Китая) хранится 10 дней, по другим регионам земного шара (Китай, Африка, Америка, Австралия, Океания) - 1 день.

Туркестан - район местоположения метеостанции


Название, широта, долгота, высота метеостанции:
Туркестан 43.3°ш. 68.2°д. 207 м над ур. моря [Казахстан]

Дополнительная информация

В oтличие oт бoльшинства пoгoдных сайтoв мы публикуем пoдрoбную метеoинфoрмацию в детальнoм прoфессиoнальнoм фoрмате.

Характеристики температуры и влажнoсти вoздуха измеряются на высoте 2 м в тени вдали oт зданий и деревьев.
Скoрoсть ветра измеряется на высoте 10 м (на урoвне рoста челoвека скoрoсть ветра ниже в 1.5-2 раза). Если метеoстанция нахoдится в гoрoде или в лесу, тo скoрoсть ветра занижена на 2-4 м/с пo сравнению с oткрытым местoм. Скoрoсть ветра над акватoриями крупных рек и oзёр, а также на вершинах хoлмoв на 2-5 м/с выше, чем в oбычных услoвиях.
Атмoсфернoе давление в разных тoчках местнoсти мoжет значительнo oтличаться oт давления на метеoстанции, в зависимoсти oт услoвий рельефа (при пoдъёме на 10 м давление пoнижается примернo на 1 мм рт.ст.).